Weather in Kozyn

Ukraine / Kyiv Region     49°42′03″N   31°06′36″E
temp.,
°C
wind,
m/s
gust,
m/s
humid.,
%
clouds,
%
prec.,
mm/h
press.,
hPa
HPBL,
m
18 september, sat
sat1800:00+18s61185100 0.1 1007359
03:00+18s6128996 0.3 1006672
06:00+17sse6129289 0.0 1005532
09:00+19s7108370 0.3 1004716
12:00+18ssw6983100 0.5 1005841
15:00+17w577584 1.4 1005730
18:00+18ese1267100 0.0 1006132
21:00+16wnw4870100 0.0 1007391
19 september, sun
sun1900:00+14wnw377990 0.0 1008202
03:00+13wnw3679100 0.0 1008267
06:00+11w34885 0.0 100889
09:00+15sw247025 0.0 1008652
12:00+17sw555797 0.1 10081181
15:00+17wsw456299 0.3 10081110
18:00+10wnw578879 0.8 1009356
21:00+9wnw4884100 0.9 1009518
20 september, mon
mon2000:00+9w4681100 0.0 1009594
03:00+8w4785100 0.1 1009600
06:00+8w4783100 0.0 1009856
09:00+8w5681100 0.1 1009942
12:00+8w5777100 0.1 1010985
15:00+10w6770100 0.1 1010975
18:00+9w6983100 0.1 1010839
21:00+8wnw61190100 0.3 1012661
21 september, tue
tue2100:00+8wnw61189100 0.0 1013626
03:00+7wnw61187100 0.0 1014627
06:00+6wnw61085100 0.0 1014587
09:00+6w6984100 0.1 1015642
12:00+6wnw6987100 0.1 1016814
15:00+5wnw61095100 0.3 1017848
18:00+5wnw61196100 0.3 1018845
21:00+5wnw71194100 0.3 1019984
22 september, wed
wed2200:00+6wnw61186100 0.0 1019844
03:00+6wnw61086100 0.0 1019956
06:00+6nw5884100 0.1 1019975
09:00+6wnw5885100 0.1 10191025
12:00+7nw6879100 0.1 10191025
15:00+7nw5783100 0.3 1018918
18:00+8nw4778100 0.1 1018985
21:00+7w3783100 0.1 1017364